Date_and_time,latitude,longitude,wind_speed,RelWindDirFrom,WindDirFrom,air_pressure,air_temperature,relative_humidity,Temp,platform_speed_wrt_ground,air_pressure_at_mean_sea_level,platform_orientation
2019-03-20 00:00,50.630435,-96.9807616666667,10.3,16.1,232,982.37,5.3,61,0.93,0.0,1009.53,131.7
2019-03-20 00:10,50.630435,-96.9807633333333,10.4,14.1,233,982.39,5.2,62,0.93,0.0,1009.56,131.7
2019-03-20 00:20,50.630435,-96.9808016666667,9.9,13.5,237,982.37,5.0,64,0.93,0.0,1009.54,131.7
2019-03-20 00:30,50.630435,-96.98079,9.8,13.6,238,982.36,4.8,65,0.94,0.0,1009.54,131.7
2019-03-20 00:40,50.6304316666667,-96.9807933333333,8.3,11.3,241,982.35,4.5,66,0.94,0.0,1009.54,131.7
2019-03-20 00:50,50.6304466666667,-96.98078,8.2,11.4,241,982.22,4.3,67,0.94,0.0,1009.42,131.7
2019-03-20 01:00,50.6304433333333,-96.9807766666667,7.5,10.4,255,982.49,4.1,68,0.94,0.0,1009.70,48.3
2019-03-20 01:10,50.6304283333333,-96.9807533333333,7.0,9.6,253,982.67,3.8,70,0.94,0.0,1009.91,48.3
2019-03-20 01:20,50.6304333333333,-96.98077,6.7,9.2,251,982.77,3.8,70,0.94,0.0,1010.01,48.3
2019-03-20 01:30,50.6304283333333,-96.9807716666667,7.4,11.4,254,982.80,3.8,71,0.94,0.0,1010.05,48.3
2019-03-20 01:40,50.6304266666667,-96.9807716666667,8.1,12.0,257,982.91,3.9,70,0.93,0.0,1010.16,48.3
2019-03-20 01:50,50.6304283333333,-96.9807733333333,8.2,11.0,257,982.92,3.9,70,0.93,0.0,1010.18,48.3
2019-03-20 02:00,50.6304283333333,-96.9807716666667,7.3,10.2,256,982.97,3.7,72,0.92,0.0,1010.24,234.7
2019-03-20 02:10,50.6304116666667,-96.980775,6.7,9.4,253,982.88,3.5,73,0.93,0.0,1010.18,234.7
2019-03-20 02:20,50.6304183333333,-96.980775,6.7,9.2,253,982.82,3.3,74,0.93,0.0,1010.13,234.7
2019-03-20 02:30,50.6304116666667,-96.9807683333333,7.0,10.1,258,982.86,3.3,74,0.93,0.0,1010.18,234.7
2019-03-20 02:40,50.6304116666667,-96.98077,5.7,8.1,269,983.03,3.2,75,0.93,0.0,1010.38,234.7
2019-03-20 02:50,50.6304166666667,-96.980775,6.0,9.1,278,983.11,3.2,75,0.93,0.0,1010.47,234.7
2019-03-20 03:00,50.6304166666667,-96.980785,5.2,7.3,275,983.15,3.2,74,0.93,0.0,1010.52,216.6
2019-03-20 03:10,50.6304283333333,-96.980785,5.3,7.1,277,983.18,3.4,73,0.93,0.0,1010.54,216.6
2019-03-20 03:20,50.6304283333333,-96.9807866666667,5.7,8.5,268,983.20,3.5,73,0.93,0.0,1010.56,216.6
2019-03-20 03:30,50.6304283333333,-96.980785,5.8,8.5,266,983.16,3.5,73,0.93,0.0,1010.52,216.6
2019-03-20 03:40,50.6304316666667,-96.9807816666667,6.6,9.7,274,983.09,3.7,72,0.93,0.0,1010.44,216.6
2019-03-20 03:50,50.6304533333333,-96.98076,6.2,9.1,276,983.19,3.8,71,0.93,0.0,1010.55,216.6
2019-03-20 04:00,50.6304316666667,-96.98078,6.0,8.9,274,983.24,3.7,72,0.93,0.0,1010.61,228.3
2019-03-20 04:10,50.630435,-96.98078,6.3,9.0,275,983.28,3.6,72,0.92,0.0,1010.67,228.3
2019-03-20 04:20,50.630435,-96.980775,6.2,9.4,278,983.41,3.5,72,0.92,0.0,1010.80,228.3
2019-03-20 04:30,50.6304366666667,-96.9807716666667,6.1,8.9,277,983.46,3.5,72,0.92,0.0,1010.85,228.3
2019-03-20 04:40,50.63045,-96.9807816666667,6.0,9.7,273,983.50,3.5,72,0.92,0.0,1010.90,228.3
2019-03-20 04:50,50.63045,-96.9807716666667,6.1,9.6,284,983.58,3.5,71,0.92,0.0,1010.97,228.3
2019-03-20 05:00,50.63044,-96.98077,8.5,13.6,290,983.54,4.0,69,0.93,0.0,1010.91,360.0
2019-03-20 05:10,50.6304416666667,-96.9807683333333,9.2,13.6,295,983.59,4.4,67,0.93,0.0,1010.94,360.0
2019-03-20 05:20,50.6304433333333,-96.9807666666667,8.8,12.2,295,983.73,4.4,67,0.93,0.0,1011.08,360.0
2019-03-20 05:30,50.6304533333333,-96.9807833333333,9.9,13.0,294,983.83,4.5,66,0.93,0.0,1011.17,360.0
2019-03-20 05:40,50.6304483333333,-96.9807733333333,6.0,11.0,321,984.11,4.3,68,0.93,0.0,1011.46,360.0
2019-03-20 05:50,50.630445,-96.9807833333333,9.3,14.7,304,984.11,4.4,66,0.93,0.0,1011.46,360.0
2019-03-20 06:00,50.6304433333333,-96.9807583333333,8.7,12.0,313,984.29,4.6,66,0.93,0.0,1011.64,33.7
2019-03-20 06:10,50.6304416666667,-96.98076,9.5,14.6,314,984.43,4.6,65,0.92,0.0,1011.79,33.7
2019-03-20 06:20,50.63045,-96.9807616666667,9.6,13.5,315,984.54,4.6,66,0.93,0.0,1011.90,33.7
2019-03-20 06:30,50.6304516666667,-96.98076,9.8,15.0,319,984.66,4.4,67,0.92,0.0,1012.03,33.7
2019-03-20 06:40,50.6304516666667,-96.98076,9.2,12.8,321,984.87,4.2,67,0.93,0.0,1012.25,33.7
2019-03-20 06:50,50.6304533333333,-96.9807666666667,10.3,15.2,322,984.89,4.0,68,0.93,0.0,1012.26,33.7
2019-03-20 07:00,50.630455,-96.9807683333333,11.0,16.0,329,985.04,4.0,68,0.93,0.0,1012.40,37.7
2019-03-20 07:10,50.6304566666667,-96.9807716666667,11.4,15.8,332,985.17,3.8,69,0.92,0.0,1012.54,37.7
2019-03-20 07:20,50.6304583333333,-96.9807733333333,11.8,16.5,331,985.31,3.7,69,0.92,0.0,1012.69,37.7
2019-03-20 07:30,50.6304583333333,-96.98078,12.9,16.4,334,985.51,3.6,70,0.92,0.0,1012.90,37.7
2019-03-20 07:40,50.6304583333333,-96.9807816666667,12.4,18.7,338,985.76,3.5,70,0.91,0.0,1013.16,37.7
2019-03-20 07:50,50.6304583333333,-96.980775,12.4,18.7,339,985.83,3.5,70,0.91,0.0,1013.23,37.7
2019-03-20 08:00,50.6304566666667,-96.980775,11.7,16.2,335,985.95,3.3,71,0.91,0.0,1013.35,318.7
2019-03-20 08:10,50.6304566666667,-96.9807733333333,12.2,17.6,328,985.98,3.4,71,0.91,0.0,1013.39,318.7
2019-03-20 08:20,50.6304566666667,-96.9807733333333,10.4,14.4,326,986.20,2.8,73,0.91,0.0,1013.65,318.7
2019-03-20 08:30,50.630455,-96.9807733333333,9.3,13.2,321,986.47,2.4,75,0.91,0.0,1013.96,318.7
2019-03-20 08:40,50.63044,-96.9807766666667,9.5,13.3,320,986.53,2.2,76,0.92,0.0,1014.04,318.7
2019-03-20 08:50,50.6304483333333,-96.9807583333333,9.4,14.2,317,986.67,2.0,77,0.92,0.0,1014.20,318.7
2019-03-20 09:00,50.6304516666667,-96.9807566666667,9.5,13.4,320,986.79,1.8,78,0.91,0.0,1014.34,360.0
2019-03-20 09:10,50.6304516666667,-96.9807633333333,9.7,15.4,322,986.92,1.8,78,0.91,0.0,1014.48,360.0
2019-03-20 09:20,50.6304483333333,-96.9807666666667,9.6,15.2,325,987.14,1.6,79,0.91,0.0,1014.72,360.0
2019-03-20 09:30,50.6304466666667,-96.980765,10.6,14.2,329,987.24,1.5,80,0.91,0.0,1014.84,360.0
2019-03-20 09:40,50.630445,-96.980765,10.8,15.8,327,987.25,1.5,80,0.90,0.0,1014.84,360.0
2019-03-20 09:50,50.630445,-96.980765,11.6,16.0,328,987.41,1.5,80,0.90,0.0,1015.02,360.0
2019-03-20 10:00,50.63048,-96.9807883333333,11.9,18.2,332,987.58,1.5,80,0.90,0.0,1015.19,326.3
2019-03-20 10:10,50.6304533333333,-96.98077,12.5,18.0,338,987.72,1.6,80,0.90,0.0,1015.35,326.3
2019-03-20 10:20,50.6304533333333,-96.9807716666667,13.0,19.6,343,987.85,1.5,81,0.90,0.0,1015.51,326.3
2019-03-20 10:30,50.6304516666667,-96.9807733333333,13.8,19.1,346,988.01,1.6,80,0.90,0.0,1015.69,326.3
2019-03-20 10:40,50.6304483333333,-96.9807716666667,12.6,15.7,341,988.29,1.4,81,0.90,0.0,1015.99,326.3
2019-03-20 10:50,50.6304483333333,-96.98077,11.4,16.9,333,988.48,1.3,82,0.90,0.0,1016.20,326.3
2019-03-20 11:00,50.63044,-96.980765,11.0,16.1,335,988.69,1.3,82,0.90,0.0,1016.42,138.7
2019-03-20 11:10,50.6304433333333,-96.980765,10.6,14.2,333,988.92,1.1,83,0.89,0.0,1016.67,138.7
2019-03-20 11:20,50.6304416666667,-96.9807666666667,10.6,16.0,330,989.14,1.0,84,0.89,0.0,1016.91,138.7
2019-03-20 11:30,50.63044,-96.980765,10.6,14.2,333,989.39,0.8,85,0.89,0.0,1017.18,138.7
2019-03-20 11:40,50.63044,-96.9807633333333,10.1,14.4,332,989.66,0.5,86,0.89,0.0,1017.47,138.7
2019-03-20 11:50,50.6304383333333,-96.9807616666667,8.4,12.8,330,989.90,0.3,88,0.90,0.0,1017.72,138.7
2019-03-20 12:00,50.63044,-96.9807666666667,7.2,11.1,328,990.11,-0.1,90,0.89,0.0,1017.96,194.5
2019-03-20 12:10,50.6304383333333,-96.9807683333333,8.7,13.3,339,990.30,-0.2,91,0.89,0.0,1018.16,194.5
2019-03-20 12:20,50.6304383333333,-96.9807683333333,10.4,12.8,342,990.46,-0.2,91,0.89,0.0,1018.32,194.5
2019-03-20 12:30,50.63044,-96.9807666666667,10.2,13.4,342,990.65,-0.3,92,0.89,0.0,1018.53,194.5
2019-03-20 12:40,50.6304416666667,-96.9807666666667,9.6,12.0,344,990.78,-0.5,93,0.89,0.0,1018.68,194.5
2019-03-20 12:50,50.6304366666667,-96.98077,9.7,12.3,342,990.95,-0.5,94,0.89,0.0,1018.86,194.5
2019-03-20 13:00,50.630455,-96.9807683333333,10.0,13.5,347,991.15,-0.5,94,0.89,0.0,1019.08,146.3
2019-03-20 13:10,50.6304416666667,-96.9807633333333,10.9,13.6,350,991.26,-0.4,94,0.89,0.0,1019.18,146.3
2019-03-20 13:20,50.630445,-96.980765,10.1,12.8,349,991.37,-0.2,94,0.89,0.0,1019.30,146.3
2019-03-20 13:30,50.630445,-96.9807616666667,9.1,12.3,342,991.52,-0.0,93,0.89,0.0,1019.46,146.3
2019-03-20 13:40,50.6304466666667,-96.980765,8.7,12.1,333,991.69,0.3,91,0.88,0.0,1019.63,146.3
2019-03-20 13:50,50.630445,-96.980765,5.5,7.5,316,991.94,0.3,90,0.87,0.0,1019.91,146.3
2019-03-20 14:00,50.6304466666667,-96.9807666666667,5.3,7.3,312,992.08,-0.0,92,0.88,0.0,1020.07,38.0
2019-03-20 14:10,50.6304466666667,-96.9807683333333,6.0,8.3,316,992.16,-0.1,92,0.89,0.0,1020.16,38.0
2019-03-20 14:20,50.630445,-96.9807666666667,6.8,10.7,342,992.02,0.2,92,0.89,0.0,1020.01,38.0
2019-03-20 14:30,50.6304466666667,-96.9807683333333,7.6,10.0,349,991.99,0.4,92,0.88,0.0,1019.98,38.0
2019-03-20 14:40,50.630445,-96.9807666666667,8.1,12.1,348,992.06,0.5,91,0.88,0.0,1020.04,38.0
2019-03-20 14:50,50.630445,-96.9807666666667,9.1,11.2,347,992.24,0.7,91,0.88,0.0,1020.22,38.0
2019-03-20 15:00,50.630445,-96.9807666666667,9.0,11.2,351,992.23,1.0,90,0.88,0.0,1020.19,90.0
2019-03-20 15:10,50.630445,-96.9807683333333,9.8,12.9,351,992.28,1.2,90,0.87,0.0,1020.22,90.0
2019-03-20 15:20,50.630445,-96.98077,8.8,12.5,355,992.51,1.4,90,0.86,0.0,1020.44,90.0
2019-03-20 15:30,50.630445,-96.98077,8.4,10.5,351,992.71,1.6,89,0.87,0.0,1020.62,90.0
2019-03-20 15:40,50.630445,-96.98077,8.8,11.2,348,992.80,1.9,86,0.87,0.0,1020.69,90.0
2019-03-20 15:50,50.630445,-96.98077,9.0,12.0,351,992.82,2.1,85,0.87,0.0,1020.72,90.0
2019-03-20 16:00,50.6304433333333,-96.9807716666667,7.9,9.9,349,992.96,2.2,84,0.87,0.0,1020.86,194.5
2019-03-20 16:10,50.6304433333333,-96.9807716666667,8.2,10.5,352,993.02,2.5,82,0.87,0.0,1020.89,194.5
2019-03-20 16:20,50.6304433333333,-96.9807716666667,7.7,10.1,348,993.08,2.7,81,0.87,0.0,1020.94,194.5
2019-03-20 16:30,50.6304433333333,-96.9807716666667,7.8,11.3,358,993.08,2.9,80,0.88,0.0,1020.92,194.5
2019-03-20 16:40,50.6304433333333,-96.9807716666667,8.3,10.0,359,993.00,3.0,78,0.88,0.0,1020.81,194.5
2019-03-20 16:50,50.6304433333333,-96.9807716666667,7.4,10.2,357,993.15,3.2,75,0.87,0.0,1020.95,194.5
2019-03-20 17:00,50.6304433333333,-96.9807716666667,7.7,9.8,359,993.19,3.4,72,0.88,0.0,1020.97,192.6
2019-03-20 17:10,50.6304433333333,-96.9807716666667,8.3,10.1,358,993.31,3.4,74,0.88,0.0,1021.09,192.6
2019-03-20 17:20,50.6304433333333,-96.9807716666667,6.7,8.8,358,993.49,3.4,73,0.89,0.0,1021.26,192.6
2019-03-20 17:30,50.6304333333333,-96.9807816666667,7.6,9.1,359,993.58,3.7,70,0.89,0.0,1021.32,192.6
2019-03-20 17:40,50.630435,-96.9807533333333,6.9,9.5,1,993.54,3.9,70,0.89,0.0,1021.25,192.6
2019-03-20 17:50,50.6304333333333,-96.9807633333333,7.0,8.0,11,993.55,3.5,74,0.89,0.0,1021.28,192.6
2019-03-20 18:00,50.6304383333333,-96.9807533333333,6.8,7.5,16,993.60,3.4,75,0.89,0.0,1021.33,90.0
2019-03-20 18:10,50.6304416666667,-96.9807716666667,6.5,7.4,16,993.71,3.3,77,0.89,0.0,1021.44,90.0
2019-03-20 18:20,50.6304433333333,-96.9807716666667,7.0,7.7,22,993.75,3.1,79,0.89,0.0,1021.47,90.0
2019-03-20 18:30,50.63044,-96.98077,6.9,7.5,24,993.71,3.1,79,0.90,0.0,1021.43,90.0
2019-03-20 18:40,50.6304416666667,-96.98077,5.9,6.6,22,993.73,3.3,78,0.90,0.0,1021.42,90.0
2019-03-20 18:50,50.6304416666667,-96.98077,5.8,7.9,25,993.69,3.2,80,0.90,0.0,1021.37,90.0
2019-03-20 19:00,50.6304433333333,-96.9807716666667,7.5,8.6,23,993.64,3.1,81,0.91,0.0,1021.34,0.0
2019-03-20 19:10,50.6304433333333,-96.9807733333333,5.8,6.9,21,993.69,3.1,80,0.91,0.0,1021.38,0.0
2019-03-20 19:20,50.630445,-96.98078,4.8,5.9,27,993.68,3.4,78,0.92,0.0,1021.34,0.0
2019-03-20 19:30,50.630445,-96.9807766666667,4.0,5.1,25,993.65,3.5,78,0.92,0.0,1021.30,0.0
2019-03-20 19:40,50.6304466666667,-96.980775,5.4,6.7,31,993.56,3.4,80,0.93,0.0,1021.23,0.0
2019-03-20 19:50,50.630445,-96.9807733333333,6.2,6.8,25,993.44,3.7,75,0.93,0.0,1021.10,0.0
2019-03-20 20:00,50.630445,-96.9807716666667,5.2,5.9,22,993.36,3.8,75,0.93,0.0,1021.01,0.0
2019-03-20 20:10,50.6304433333333,-96.9807716666667,4.1,4.9,33,993.34,4.2,69,0.94,0.0,1020.98,0.0
2019-03-20 20:20,50.6304433333333,-96.9807683333333,3.4,4.3,50,993.26,4.7,69,0.94,0.0,1020.88,0.0
2019-03-20 20:30,50.6304433333333,-96.9807683333333,1.9,3.1,62,993.19,5.7,63,0.95,0.0,1020.75,0.0
2019-03-20 20:40,50.6304433333333,-96.9807683333333,1.8,3.1,47,993.16,6.6,58,0.96,0.0,1020.67,0.0
2019-03-20 20:50,50.6304433333333,-96.9807666666667,3.2,3.8,34,993.08,5.7,62,0.96,0.0,1020.64,0.0
2019-03-20 21:00,50.6304433333333,-96.9807683333333,2.6,3.0,46,993.04,5.5,63,0.97,0.0,1020.60,270.0
2019-03-20 21:10,50.6304433333333,-96.9807683333333,1.2,2.4,68,993.03,7.3,55,0.97,0.0,1020.49,270.0
2019-03-20 21:20,50.6304433333333,-96.9807683333333,1.9,2.4,60,993.06,7.8,54,0.97,0.0,1020.50,270.0
2019-03-20 21:30,50.6304416666667,-96.9807683333333,1.2,2.2,93,993.03,8.2,54,0.97,0.0,1020.45,270.0
2019-03-20 21:40,50.6304316666667,-96.9807683333333,0.8,2.4,91,992.99,7.5,57,0.97,0.0,1020.43,270.0
2019-03-20 21:50,50.6304333333333,-96.980765,1.7,4.1,84,993.02,8.1,54,0.98,0.0,1020.43,270.0
2019-03-20 22:00,50.6304333333333,-96.9807616666667,2.1,3.4,72,992.86,7.7,55,0.98,0.0,1020.26,131.7
2019-03-20 22:10,50.630435,-96.9807616666667,3.3,4.2,81,992.78,7.4,55,0.99,0.0,1020.17,131.7
2019-03-20 22:20,50.6304333333333,-96.98076,2.7,3.8,92,992.76,7.7,54,0.99,0.0,1020.08,131.7
2019-03-20 22:30,50.6304316666667,-96.9807633333333,3.7,4.7,96,992.74,6.2,61,1.00,0.0,1020.09,131.7
2019-03-20 22:40,50.6304333333333,-96.98076,3.3,4.2,92,992.76,6.4,58,1.00,0.0,1020.14,131.7
2019-03-20 22:50,50.6304333333333,-96.98076,3.5,4.1,98,992.66,6.4,58,1.01,0.0,1020.05,131.7
2019-03-20 23:00,50.6304333333333,-96.9807583333333,5.3,6.2,113,992.53,5.1,65,1.01,0.0,1019.89,131.7
2019-03-20 23:10,50.630435,-96.98076,5.1,5.7,115,992.45,4.5,69,1.01,0.0,1019.82,131.7
2019-03-20 23:20,50.630435,-96.9807616666667,6.2,7.9,133,992.36,3.7,69,1.01,0.0,1019.74,131.7
2019-03-20 23:30,50.630435,-96.98076,8.0,8.8,149,992.20,2.6,76,1.02,0.0,1019.67,131.7
2019-03-20 23:40,50.630435,-96.98076,7.3,8.2,163,992.12,2.2,79,1.02,0.0,1019.59,131.7
